ASA231 KSEA-PAJN

Flight info

Callsign ASA231
Flight time 2h 26m
Altitude 32000
Route BANGR9 PANGL KEVNA ANN SSR
Aircraft B739/M-SDE2E3FGHIRWXY/LB1

Departure

Time 2026-05-04 00:08
Airport Seattle–Tacoma International Airport (KSEA)

Arrival

Time 2026-05-04 02:35
Airport Juneau International Airport (PAJN)
Time Latitude Longitude Altitude Speed Heading
2026-05-03 23:46 47.43907 -122.30047 425 ft 0 kts 261°
2026-05-04 00:00 47.43908 -122.30035 425 ft 2 kts 261°
2026-05-04 00:00 47.43911 -122.30014 425 ft 2 kts 261°
2026-05-04 00:01 47.43913 -122.29992 425 ft 2 kts 261°
2026-05-04 00:01 47.43914 -122.29977 425 ft 1 kts 262°
2026-05-04 00:01 47.43921 -122.29960 425 ft 2 kts 210°
2026-05-04 00:01 47.43932 -122.29955 425 ft 0 kts 175°
2026-05-04 00:02 47.43939 -122.29957 425 ft 0 kts 172°
2026-05-04 00:04 47.43937 -122.29957 425 ft 1 kts 172°
2026-05-04 00:04 47.43888 -122.29960 425 ft 14 kts 191°
2026-05-04 00:04 47.43786 -122.30008 425 ft 14 kts 219°
2026-05-04 00:05 47.43753 -122.30132 425 ft 12 kts 258°
2026-05-04 00:05 47.43734 -122.30244 425 ft 10 kts 258°
2026-05-04 00:05 47.43722 -122.30355 425 ft 12 kts 267°
2026-05-04 00:05 47.43721 -122.30505 425 ft 16 kts 270°
2026-05-04 00:06 47.43680 -122.30637 425 ft 14 kts 189°
2026-05-04 00:06 47.43589 -122.30593 425 ft 15 kts 151°
2026-05-04 00:06 47.43475 -122.30561 425 ft 17 kts 179°
2026-05-04 00:06 47.43358 -122.30560 425 ft 15 kts 181°
2026-05-04 00:07 47.43254 -122.30574 425 ft 14 kts 197°
2026-05-04 00:07 47.43179 -122.30649 425 ft 12 kts 243°
2026-05-04 00:07 47.43185 -122.30759 425 ft 10 kts 298°
2026-05-04 00:07 47.43262 -122.30807 425 ft 16 kts
2026-05-04 00:08 47.43468 -122.30806 425 ft 55 kts
2026-05-04 00:08 47.44100 -122.30804 425 ft 125 kts
2026-05-04 00:08 47.45173 -122.30782 584 ft 170 kts
2026-05-04 00:08 47.46334 -122.30715 1344 ft 173 kts
2026-05-04 00:09 47.47566 -122.30732 1978 ft 185 kts 360°
2026-05-04 00:09 47.48875 -122.30742 2582 ft 191 kts
2026-05-04 00:09 47.50184 -122.30782 3174 ft 187 kts 358°
2026-05-04 00:09 47.51496 -122.30842 3786 ft 190 kts 359°
2026-05-04 00:10 47.52832 -122.30894 4250 ft 203 kts 358°
2026-05-04 00:10 47.54342 -122.30965 4485 ft 229 kts 357°
2026-05-04 00:10 47.55990 -122.31464 4710 ft 255 kts 335°
2026-05-04 00:10 47.57521 -122.32929 5006 ft 274 kts 325°
2026-05-04 00:11 47.59090 -122.34598 5762 ft 280 kts 323°
2026-05-04 00:11 47.60409 -122.36649 6658 ft 281 kts 303°
2026-05-04 00:11 47.61117 -122.39351 7504 ft 283 kts 284°
2026-05-04 00:11 47.61482 -122.42201 8314 ft 285 kts 281°
2026-05-04 00:12 47.61810 -122.45066 9076 ft 287 kts 281°
2026-05-04 00:12 47.62123 -122.48009 9814 ft 290 kts 278°
2026-05-04 00:12 47.62312 -122.51016 10262 ft 305 kts 276°
2026-05-04 00:12 47.62459 -122.54262 10487 ft 327 kts 275°
2026-05-04 00:13 47.62625 -122.57732 10685 ft 349 kts 276°
2026-05-04 00:13 47.62814 -122.61429 10890 ft 370 kts 276°
2026-05-04 00:13 47.63018 -122.65295 11336 ft 382 kts 275°
2026-05-04 00:13 47.63226 -122.69208 11984 ft 387 kts 275°
2026-05-04 00:14 47.63435 -122.73164 12646 ft 391 kts 275°
2026-05-04 00:14 47.63650 -122.77239 13280 ft 397 kts 275°
2026-05-04 00:14 47.63864 -122.81298 13873 ft 402 kts 275°
2026-05-04 00:14 47.64137 -122.85414 14627 ft 403 kts 279°
2026-05-04 00:15 47.64771 -122.89465 15341 ft 403 kts 290°
2026-05-04 00:15 47.65989 -122.93132 16049 ft 402 kts 305°
2026-05-04 00:15 47.67738 -122.96384 16662 ft 404 kts 314°
2026-05-04 00:15 47.69680 -122.99401 17218 ft 408 kts 316°
2026-05-04 00:16 47.71719 -123.02399 17789 ft 412 kts 317°
2026-05-04 00:16 47.73741 -123.05341 18430 ft 414 kts 317°
2026-05-04 00:16 47.75821 -123.08378 19034 ft 417 kts 317°
2026-05-04 00:16 47.77875 -123.11395 19623 ft 419 kts 317°
2026-05-04 00:17 47.79937 -123.14436 20190 ft 422 kts 317°
2026-05-04 00:17 47.82022 -123.17521 20753 ft 425 kts 317°
2026-05-04 00:17 47.84129 -123.20644 21317 ft 427 kts 317°
2026-05-04 00:17 47.86208 -123.23733 21821 ft 430 kts 317°
2026-05-04 00:18 47.88343 -123.26909 22404 ft 431 kts 317°
2026-05-04 00:18 47.90462 -123.30067 22912 ft 434 kts 317°
2026-05-04 00:18 47.92598 -123.33253 23368 ft 437 kts 317°
2026-05-04 00:18 47.94737 -123.36451 23838 ft 440 kts 318°
2026-05-04 00:19 47.96910 -123.39703 24261 ft 443 kts 318°
2026-05-04 00:19 47.99089 -123.42966 24688 ft 446 kts 318°
2026-05-04 00:19 48.01272 -123.46241 25081 ft 449 kts 318°
2026-05-04 00:19 48.03459 -123.49526 25475 ft 452 kts 318°
2026-05-04 00:20 48.05676 -123.52860 25855 ft 455 kts 318°
2026-05-04 00:20 48.07911 -123.56227 26242 ft 457 kts 319°
2026-05-04 00:20 48.10167 -123.59630 26588 ft 461 kts 319°
2026-05-04 00:20 48.12445 -123.62981 26937 ft 463 kts 320°
2026-05-04 00:21 48.14846 -123.66213 27506 ft 458 kts 324°
2026-05-04 00:21 48.17358 -123.68986 28066 ft 453 kts 329°
2026-05-04 00:21 48.19987 -123.71594 28609 ft 450 kts 330°
2026-05-04 00:21 48.22611 -123.74088 29194 ft 446 kts 332°
2026-05-04 00:22 48.25234 -123.76530 29646 ft 446 kts 332°
2026-05-04 00:22 48.27867 -123.78970 30091 ft 445 kts 332°
2026-05-04 00:22 48.30488 -123.81402 30647 ft 442 kts 333°
2026-05-04 00:22 48.33069 -123.83805 31313 ft 435 kts 333°
2026-05-04 00:23 48.35612 -123.86177 31842 ft 431 kts 333°
2026-05-04 00:23 48.38190 -123.88583 31936 ft 436 kts 333°
2026-05-04 00:23 48.43321 -123.93381 31939 ft 433 kts 333°
2026-05-04 00:24 48.48405 -123.98160 31947 ft 427 kts 333°
2026-05-04 00:24 48.53484 -124.02940 31951 ft 429 kts 333°
2026-05-04 00:25 48.58531 -124.07700 31953 ft 430 kts 333°
2026-05-04 00:25 48.63581 -124.12479 31959 ft 429 kts 333°
2026-05-04 00:26 48.68655 -124.17293 31966 ft 427 kts 333°
2026-05-04 00:26 48.73671 -124.22063 31976 ft 427 kts 333°
2026-05-04 00:27 48.78679 -124.26835 31972 ft 427 kts 333°
2026-05-04 00:27 48.83704 -124.31637 31970 ft 427 kts 333°
2026-05-04 00:28 48.88705 -124.36426 31974 ft 427 kts 333°
2026-05-04 00:28 48.93722 -124.41243 31983 ft 426 kts 333°
2026-05-04 00:29 48.98703 -124.46036 32003 ft 425 kts 333°
2026-05-04 00:29 49.03693 -124.50848 32005 ft 425 kts 333°
2026-05-04 00:30 49.08697 -124.55688 31982 ft 425 kts 333°
2026-05-04 00:30 49.13688 -124.60524 31960 ft 426 kts 333°
2026-05-04 00:31 49.18693 -124.65388 31939 ft 425 kts 332°
2026-05-04 00:31 49.23685 -124.70250 31923 ft 425 kts 332°
2026-05-04 00:32 49.28645 -124.75095 31907 ft 424 kts 332°
2026-05-04 00:32 49.33632 -124.79974 31916 ft 425 kts 332°
2026-05-04 00:33 49.41061 -124.87267 31944 ft 423 kts 332°
2026-05-04 00:34 49.46030 -124.92160 31977 ft 424 kts 332°
2026-05-04 00:34 49.50972 -124.97038 32002 ft 422 kts 332°
2026-05-04 00:35 49.55909 -125.01923 31991 ft 422 kts 332°
2026-05-04 00:35 49.60847 -125.06820 31975 ft 422 kts 332°
2026-05-04 00:36 49.65797 -125.11742 31972 ft 422 kts 331°
2026-05-04 00:36 49.70704 -125.16633 31982 ft 423 kts 331°
2026-05-04 00:37 49.75656 -125.21581 32003 ft 422 kts 331°
2026-05-04 00:37 49.80568 -125.26502 32000 ft 421 kts 331°
2026-05-04 00:38 49.85471 -125.31424 31988 ft 422 kts 331°
2026-05-04 00:38 49.90360 -125.36345 31980 ft 421 kts 331°
2026-05-04 00:39 49.95285 -125.41312 31960 ft 422 kts 331°
2026-05-04 00:39 50.00175 -125.46259 31946 ft 422 kts 330°
2026-05-04 00:40 50.05083 -125.51237 31966 ft 420 kts 331°
2026-05-04 00:40 50.09947 -125.56180 31983 ft 420 kts 331°
2026-05-04 00:41 50.14863 -125.61189 31983 ft 420 kts 330°
2026-05-04 00:41 50.19707 -125.66138 31977 ft 419 kts 330°
2026-05-04 00:42 50.24592 -125.71140 31958 ft 420 kts 330°
2026-05-04 00:42 50.29465 -125.76142 31945 ft 420 kts 330°
2026-05-04 00:43 50.34336 -125.81155 31946 ft 420 kts 329°
2026-05-04 00:43 50.39204 -125.86178 31965 ft 419 kts 329°
2026-05-04 00:44 50.44049 -125.91189 31960 ft 419 kts 329°
2026-05-04 00:44 50.48896 -125.96215 31949 ft 420 kts 329°
2026-05-04 00:45 50.53773 -126.01286 31960 ft 419 kts 329°
2026-05-04 00:45 50.58589 -126.06303 31981 ft 418 kts 329°
2026-05-04 00:46 50.63432 -126.11362 32000 ft 417 kts 329°
2026-05-04 00:46 50.68280 -126.16438 32014 ft 418 kts 329°
2026-05-04 00:47 50.73074 -126.21471 32021 ft 418 kts 329°
2026-05-04 00:47 50.77934 -126.26585 32028 ft 419 kts 329°
2026-05-04 00:48 50.82748 -126.31665 32021 ft 418 kts 329°
2026-05-04 00:48 50.87577 -126.36773 32011 ft 418 kts 329°
2026-05-04 00:49 50.92419 -126.41908 32004 ft 419 kts 329°
2026-05-04 00:49 50.97256 -126.47051 31984 ft 419 kts 328°
2026-05-04 00:50 51.02041 -126.52192 31983 ft 418 kts 328°
2026-05-04 00:50 51.06789 -126.57484 31995 ft 417 kts 327°
2026-05-04 00:51 51.11536 -126.62801 32012 ft 418 kts 328°
2026-05-04 00:51 51.16307 -126.68151 32051 ft 418 kts 327°
2026-05-04 00:52 51.21055 -126.73481 32073 ft 419 kts 327°
2026-05-04 00:52 51.25803 -126.78825 32085 ft 418 kts 327°
2026-05-04 00:53 51.30531 -126.84158 32065 ft 418 kts 327°
2026-05-04 00:53 51.35263 -126.89507 32046 ft 418 kts 327°
2026-05-04 00:54 51.39988 -126.94863 32035 ft 418 kts 327°
2026-05-04 00:54 51.44702 -127.00221 32032 ft 417 kts 327°
2026-05-04 00:55 51.49445 -127.05624 32024 ft 417 kts 326°
2026-05-04 00:55 51.54132 -127.10979 32019 ft 416 kts 327°
2026-05-04 00:56 51.58859 -127.16392 32023 ft 417 kts 327°
2026-05-04 00:56 51.63559 -127.21788 32029 ft 417 kts 326°
2026-05-04 00:57 51.68275 -127.27218 32029 ft 417 kts 326°
2026-05-04 00:57 51.72989 -127.32658 32035 ft 417 kts 326°
2026-05-04 00:58 51.77673 -127.38080 32033 ft 417 kts 326°
2026-05-04 00:58 51.82370 -127.43529 32032 ft 415 kts 326°
2026-05-04 00:59 51.87065 -127.48991 32035 ft 417 kts 326°
2026-05-04 00:59 51.91732 -127.54434 32017 ft 416 kts 326°
2026-05-04 01:00 51.96396 -127.59888 32012 ft 416 kts 326°
2026-05-04 01:00 52.01102 -127.65405 32010 ft 417 kts 325°
2026-05-04 01:01 52.05793 -127.70919 32009 ft 417 kts 325°
2026-05-04 01:01 52.10467 -127.76429 32004 ft 416 kts 325°
2026-05-04 01:02 52.15154 -127.81969 31990 ft 416 kts 325°
2026-05-04 01:02 52.19814 -127.87490 31991 ft 417 kts 325°
2026-05-04 01:03 52.24487 -127.93042 31987 ft 417 kts 325°
2026-05-04 01:03 52.29151 -127.98612 31982 ft 418 kts 325°
2026-05-04 01:04 52.33893 -128.04280 31979 ft 423 kts 325°
2026-05-04 01:04 52.38592 -128.09920 31977 ft 420 kts 325°
2026-05-04 01:05 52.43221 -128.15466 31977 ft 412 kts 325°
2026-05-04 01:05 52.47893 -128.21081 31978 ft 416 kts 325°
2026-05-04 01:06 52.52526 -128.26671 31982 ft 416 kts 325°
2026-05-04 01:06 52.57191 -128.32314 31986 ft 415 kts 324°
2026-05-04 01:07 52.61811 -128.37921 32001 ft 414 kts 325°
2026-05-04 01:07 52.66428 -128.43539 32011 ft 415 kts 324°
2026-05-04 01:08 52.71044 -128.49173 32022 ft 415 kts 324°
2026-05-04 01:08 52.75658 -128.54819 32022 ft 414 kts 324°
2026-05-04 01:09 52.80282 -128.60492 32014 ft 414 kts 324°
2026-05-04 01:09 52.84889 -128.66157 32010 ft 415 kts 324°
2026-05-04 01:10 52.89499 -128.71845 32000 ft 415 kts 324°
2026-05-04 01:10 52.94127 -128.77570 31997 ft 414 kts 323°
2026-05-04 01:11 52.98713 -128.83256 32002 ft 413 kts 324°
2026-05-04 01:11 53.03278 -128.88934 32002 ft 412 kts 323°
2026-05-04 01:12 53.07878 -128.94669 32009 ft 415 kts 323°
2026-05-04 01:12 53.12474 -129.00415 32010 ft 414 kts 323°
2026-05-04 01:13 53.17032 -129.06130 32010 ft 412 kts 323°
2026-05-04 01:13 53.21608 -129.11882 32010 ft 413 kts 323°
2026-05-04 01:14 53.26169 -129.17633 32032 ft 412 kts 323°
2026-05-04 01:14 53.30718 -129.23383 32042 ft 412 kts 323°
2026-05-04 01:15 53.35286 -129.29173 32033 ft 413 kts 323°
2026-05-04 01:15 53.39821 -129.34937 32047 ft 411 kts 323°
2026-05-04 01:16 53.44366 -129.40730 32051 ft 411 kts 323°
2026-05-04 01:16 53.48927 -129.46559 32063 ft 412 kts 323°
2026-05-04 01:17 53.53449 -129.52353 32061 ft 410 kts 323°
2026-05-04 01:17 53.57982 -129.58177 32069 ft 411 kts 323°
2026-05-04 01:18 53.62496 -129.63995 32072 ft 411 kts 323°
2026-05-04 01:18 53.67023 -129.69846 32080 ft 410 kts 322°
2026-05-04 01:19 53.71536 -129.75693 32090 ft 410 kts 322°
2026-05-04 01:19 53.76033 -129.81538 32098 ft 409 kts 322°
2026-05-04 01:20 53.80546 -129.87418 32094 ft 409 kts 322°
2026-05-04 01:20 53.85035 -129.93283 32107 ft 409 kts 322°
2026-05-04 01:21 53.89531 -129.99173 32109 ft 410 kts 322°
2026-05-04 01:21 53.94007 -130.05054 32117 ft 410 kts 321°
2026-05-04 01:22 53.98510 -130.10986 32111 ft 411 kts 321°
2026-05-04 01:22 54.02992 -130.16908 32126 ft 410 kts 321°
2026-05-04 01:23 54.07489 -130.22867 32125 ft 410 kts 321°
2026-05-04 01:23 54.11951 -130.28795 32132 ft 410 kts 321°
2026-05-04 01:24 54.16456 -130.34796 32139 ft 409 kts 321°
2026-05-04 01:24 54.20896 -130.40730 32156 ft 408 kts 321°
2026-05-04 01:25 54.25347 -130.46693 32160 ft 408 kts 321°
2026-05-04 01:25 54.29831 -130.52718 32152 ft 409 kts 321°
2026-05-04 01:26 54.34275 -130.58708 32146 ft 409 kts 321°
2026-05-04 01:26 54.38738 -130.64739 32139 ft 409 kts 321°
2026-05-04 01:27 54.43193 -130.70775 32130 ft 407 kts 320°
2026-05-04 01:27 54.47630 -130.76804 32129 ft 408 kts 320°
2026-05-04 01:28 54.52070 -130.82855 32132 ft 408 kts 320°
2026-05-04 01:28 54.56516 -130.88933 32126 ft 408 kts 320°
2026-05-04 01:29 54.60957 -130.95020 32134 ft 408 kts 320°
2026-05-04 01:29 54.65376 -131.01094 32139 ft 408 kts 320°
2026-05-04 01:30 54.69805 -131.07199 32134 ft 408 kts 320°
2026-05-04 01:30 54.74207 -131.13286 32137 ft 409 kts 320°
2026-05-04 01:31 54.78625 -131.19411 32140 ft 408 kts 320°
2026-05-04 01:31 54.83056 -131.25572 32143 ft 409 kts 319°
2026-05-04 01:32 54.87484 -131.31746 32143 ft 408 kts 319°
2026-05-04 01:32 54.91872 -131.37882 32150 ft 408 kts 319°
2026-05-04 01:33 54.96299 -131.44092 32156 ft 408 kts 319°
2026-05-04 01:33 55.00708 -131.50293 32178 ft 408 kts 319°
2026-05-04 01:34 55.05114 -131.56493 32182 ft 409 kts 320°
2026-05-04 01:34 55.09843 -131.62019 32192 ft 411 kts 326°
2026-05-04 01:35 55.14721 -131.67209 32187 ft 410 kts 325°
2026-05-04 01:35 55.19548 -131.72362 32188 ft 409 kts 325°
2026-05-04 01:36 55.24398 -131.77576 32192 ft 410 kts 325°
2026-05-04 01:36 55.29237 -131.82808 32185 ft 409 kts 325°
2026-05-04 01:37 55.34034 -131.88013 32190 ft 410 kts 325°
2026-05-04 01:37 55.38886 -131.93295 32190 ft 409 kts 324°
2026-05-04 01:38 55.43686 -131.98537 32183 ft 409 kts 324°
2026-05-04 01:38 55.48529 -132.03844 32186 ft 410 kts 324°
2026-05-04 01:39 55.53348 -132.09137 32187 ft 410 kts 324°
2026-05-04 01:39 55.58157 -132.14436 32192 ft 409 kts 324°
2026-05-04 01:40 55.62988 -132.19777 32182 ft 411 kts 324°
2026-05-04 01:40 55.67804 -132.25114 32182 ft 409 kts 324°
2026-05-04 01:41 55.72629 -132.30478 32193 ft 410 kts 324°
2026-05-04 01:41 55.77419 -132.35818 32192 ft 410 kts 324°
2026-05-04 01:42 55.82231 -132.41199 32200 ft 409 kts 324°
2026-05-04 01:42 55.87042 -132.46596 32202 ft 409 kts 324°
2026-05-04 01:43 55.91840 -132.51993 32201 ft 410 kts 324°
2026-05-04 01:43 55.96652 -132.57423 32206 ft 409 kts 324°
2026-05-04 01:44 56.01481 -132.62886 32209 ft 410 kts 324°
2026-05-04 01:44 56.06268 -132.68320 32209 ft 409 kts 323°
2026-05-04 01:45 56.11039 -132.73750 32211 ft 409 kts 323°
2026-05-04 01:45 56.18218 -132.81953 32226 ft 409 kts 323°
2026-05-04 01:46 56.23018 -132.87457 32233 ft 409 kts 323°
2026-05-04 01:46 56.27782 -132.92937 32219 ft 408 kts 323°
2026-05-04 01:47 56.32571 -132.98463 32218 ft 409 kts 323°
2026-05-04 01:47 56.37339 -133.03981 32227 ft 410 kts 322°
2026-05-04 01:48 56.42107 -133.09515 32226 ft 408 kts 322°
2026-05-04 01:48 56.46859 -133.15047 32229 ft 407 kts 322°
2026-05-04 01:49 56.51605 -133.20589 32233 ft 407 kts 322°
2026-05-04 01:49 56.56325 -133.26119 32248 ft 406 kts 322°
2026-05-04 01:50 56.61081 -133.31706 32242 ft 407 kts 322°
2026-05-04 01:50 56.65810 -133.37280 32250 ft 409 kts 322°
2026-05-04 01:51 56.70558 -133.42891 32242 ft 407 kts 322°
2026-05-04 01:51 56.75279 -133.48486 32233 ft 406 kts 322°
2026-05-04 01:52 56.79994 -133.54092 32229 ft 406 kts 322°
2026-05-04 01:52 56.84716 -133.59723 32236 ft 405 kts 322°
2026-05-04 01:53 56.89408 -133.65340 32250 ft 407 kts 321°
2026-05-04 01:53 56.94133 -133.71008 32258 ft 406 kts 321°
2026-05-04 01:54 56.98836 -133.76668 32263 ft 405 kts 321°
2026-05-04 01:54 57.03540 -133.82349 32264 ft 405 kts 321°
2026-05-04 01:55 57.08212 -133.88007 32270 ft 403 kts 321°
2026-05-04 01:55 57.12874 -133.93672 32261 ft 405 kts 321°
2026-05-04 01:56 57.17563 -133.99388 32259 ft 405 kts 321°
2026-05-04 01:56 57.22263 -134.05130 32179 ft 402 kts 320°
2026-05-04 01:57 57.24568 -134.07950 31706 ft 398 kts 321°
2026-05-04 01:57 57.26863 -134.10765 31012 ft 398 kts 321°
2026-05-04 01:57 57.29144 -134.13580 30612 ft 396 kts 321°
2026-05-04 01:57 57.31438 -134.16429 30480 ft 401 kts 320°
2026-05-04 01:58 57.33788 -134.19354 30357 ft 411 kts 321°
2026-05-04 01:58 57.36150 -134.22288 30131 ft 413 kts 321°
2026-05-04 01:58 57.38531 -134.25238 29397 ft 415 kts 321°
2026-05-04 01:58 57.40919 -134.28197 28663 ft 414 kts 321°
2026-05-04 01:59 57.43318 -134.31169 28021 ft 411 kts 321°
2026-05-04 01:59 57.45666 -134.34082 27395 ft 408 kts 321°
2026-05-04 01:59 57.48000 -134.36981 26774 ft 404 kts 321°
2026-05-04 01:59 57.50329 -134.39879 26156 ft 401 kts 322°
2026-05-04 02:00 57.52603 -134.42714 25547 ft 398 kts 322°
2026-05-04 02:00 57.54917 -134.45604 24923 ft 395 kts 322°
2026-05-04 02:00 57.57157 -134.48407 24327 ft 392 kts 322°
2026-05-04 02:00 57.59399 -134.51216 23715 ft 390 kts 322°
2026-05-04 02:01 57.61633 -134.54021 23102 ft 389 kts 322°
2026-05-04 02:01 57.63887 -134.56854 22481 ft 387 kts 322°
2026-05-04 02:01 57.66082 -134.59616 21865 ft 386 kts 322°
2026-05-04 02:01 57.68286 -134.62396 21247 ft 384 kts 322°
2026-05-04 02:02 57.70488 -134.65175 20626 ft 382 kts 321°
2026-05-04 02:02 57.72683 -134.67950 20012 ft 381 kts 321°
2026-05-04 02:02 57.74871 -134.70721 19382 ft 379 kts 321°
2026-05-04 02:02 57.77017 -134.73442 18778 ft 378 kts 321°
2026-05-04 02:03 57.79184 -134.76193 18148 ft 375 kts 322°
2026-05-04 02:03 57.81314 -134.78900 17818 ft 365 kts 322°
2026-05-04 02:03 57.83389 -134.81537 17524 ft 354 kts 321°
2026-05-04 02:03 57.85413 -134.84117 17086 ft 349 kts 321°
2026-05-04 02:04 57.87381 -134.86633 16545 ft 345 kts 321°
2026-05-04 02:04 57.89341 -134.89140 15862 ft 337 kts 321°
2026-05-04 02:04 57.91265 -134.91605 15046 ft 334 kts 321°
2026-05-04 02:04 57.93144 -134.94016 14151 ft 332 kts 321°
2026-05-04 02:05 57.95021 -134.96426 13350 ft 327 kts 321°
2026-05-04 02:05 57.96907 -134.98853 12557 ft 328 kts 321°
2026-05-04 02:05 57.98773 -135.01257 11951 ft 328 kts 321°
2026-05-04 02:05 58.00644 -135.03668 11404 ft 326 kts 322°
2026-05-04 02:06 58.02506 -135.06071 10876 ft 324 kts 322°
2026-05-04 02:06 58.04337 -135.08432 10549 ft 315 kts 322°
2026-05-04 02:06 58.06094 -135.10701 10386 ft 302 kts 322°
2026-05-04 02:06 58.07794 -135.12898 10254 ft 289 kts 322°
2026-05-04 02:07 58.09421 -135.15007 10154 ft 276 kts 321°
2026-05-04 02:07 58.10963 -135.17009 9983 ft 267 kts 321°
2026-05-04 02:07 58.12489 -135.18997 9647 ft 265 kts 321°
2026-05-04 02:07 58.14000 -135.20967 9273 ft 263 kts 322°
2026-05-04 02:08 58.15489 -135.22906 9056 ft 255 kts 322°
2026-05-04 02:08 58.17015 -135.24425 8915 ft 251 kts 339°
2026-05-04 02:08 58.18778 -135.24608 8647 ft 259 kts
2026-05-04 02:08 58.20450 -135.23290 8252 ft 264 kts 23°
2026-05-04 02:09 58.22037 -135.21677 7988 ft 256 kts 22°
2026-05-04 02:09 58.23595 -135.20171 7708 ft 247 kts 22°
2026-05-04 02:09 58.25104 -135.18713 7411 ft 239 kts 22°
2026-05-04 02:09 58.26564 -135.17293 7151 ft 230 kts 22°
2026-05-04 02:10 58.27960 -135.15929 6905 ft 220 kts 22°
2026-05-04 02:10 58.29282 -135.14635 6662 ft 211 kts 23°
2026-05-04 02:10 58.30551 -135.13393 6437 ft 203 kts 23°
2026-05-04 02:10 58.31797 -135.12170 6207 ft 198 kts 23°
2026-05-04 02:11 58.33006 -135.10985 5992 ft 194 kts 22°
2026-05-04 02:11 58.34210 -135.09802 5772 ft 193 kts 23°
2026-05-04 02:11 58.35332 -135.08452 5550 ft 195 kts 42°
2026-05-04 02:11 58.35945 -135.06207 5460 ft 196 kts 82°
2026-05-04 02:12 58.35954 -135.03554 5130 ft 204 kts 92°
2026-05-04 02:12 58.35963 -135.00900 4817 ft 196 kts 90°
2026-05-04 02:12 58.35968 -134.98406 4545 ft 186 kts 91°
2026-05-04 02:12 58.35966 -134.95993 4312 ft 178 kts 91°
2026-05-04 02:13 58.35964 -134.93636 4079 ft 178 kts 91°
2026-05-04 02:13 58.35961 -134.91325 3831 ft 171 kts 91°
2026-05-04 02:13 58.35958 -134.89093 3608 ft 167 kts 91°
2026-05-04 02:13 58.35954 -134.86888 3361 ft 170 kts 91°
2026-05-04 02:14 58.35949 -134.84685 3222 ft 161 kts 91°
2026-05-04 02:14 58.35926 -134.82594 3575 ft 170 kts 92°
2026-05-04 02:14 58.35870 -134.80164 2911 ft 188 kts 93°
2026-05-04 02:14 58.35812 -134.77974 3411 ft 168 kts 94°
2026-05-04 02:15 58.35757 -134.75484 3270 ft 199 kts 92°
2026-05-04 02:15 58.35841 -134.73010 3972 ft 184 kts 84°
2026-05-04 02:15 58.35942 -134.70593 4441 ft 186 kts 88°
2026-05-04 02:15 58.35907 -134.67960 4336 ft 215 kts 103°
2026-05-04 02:16 58.35115 -134.65538 4336 ft 224 kts 141°
2026-05-04 02:16 58.33819 -134.63945 4573 ft 222 kts 156°
2026-05-04 02:16 58.32330 -134.63386 4824 ft 220 kts 188°
2026-05-04 02:16 58.30927 -134.64360 5100 ft 216 kts 213°
2026-05-04 02:17 58.29821 -134.66270 5351 ft 213 kts 237°
2026-05-04 02:17 58.29315 -134.68846 5542 ft 213 kts 262°
2026-05-04 02:17 58.29419 -134.71640 5517 ft 213 kts 285°
2026-05-04 02:17 58.30163 -134.74091 5509 ft 216 kts 310°
2026-05-04 02:18 58.31364 -134.75836 5525 ft 221 kts 324°
2026-05-04 02:18 58.32666 -134.77380 5523 ft 222 kts 324°
2026-05-04 02:18 58.33969 -134.78938 5522 ft 221 kts 324°
2026-05-04 02:18 58.35189 -134.80803 5521 ft 234 kts 308°
2026-05-04 02:19 58.35967 -134.83629 5524 ft 251 kts 282°
2026-05-04 02:19 58.36086 -134.86978 5519 ft 255 kts 268°
2026-05-04 02:19 58.36019 -134.90375 5514 ft 256 kts 264°
2026-05-04 02:19 58.35484 -134.93533 5514 ft 254 kts 234°
2026-05-04 02:20 58.34201 -134.95819 5521 ft 256 kts 220°
2026-05-04 02:20 58.32853 -134.98019 5520 ft 256 kts 224°
2026-05-04 02:20 58.31565 -135.00343 5519 ft 255 kts 226°
2026-05-04 02:20 58.30304 -135.02678 5523 ft 253 kts 226°
2026-05-04 02:21 58.29044 -135.05025 5518 ft 254 kts 226°
2026-05-04 02:21 58.27774 -135.07385 5517 ft 255 kts 226°
2026-05-04 02:21 58.26503 -135.09747 5524 ft 256 kts 226°
2026-05-04 02:21 58.25231 -135.12109 5529 ft 257 kts 227°
2026-05-04 02:22 58.23964 -135.14459 5531 ft 257 kts 227°
2026-05-04 02:22 58.22677 -135.16843 5523 ft 257 kts 227°
2026-05-04 02:22 58.21398 -135.19206 5519 ft 256 kts 227°
2026-05-04 02:22 58.20131 -135.21544 5518 ft 258 kts 227°
2026-05-04 02:23 58.18832 -135.23908 5521 ft 259 kts 224°
2026-05-04 02:23 58.17300 -135.25707 5521 ft 263 kts 204°
2026-05-04 02:23 58.15492 -135.26245 5521 ft 269 kts 186°
2026-05-04 02:23 58.13616 -135.26428 5517 ft 269 kts 188°
2026-05-04 02:24 58.11755 -135.26721 5518 ft 269 kts 189°
2026-05-04 02:24 58.09903 -135.27020 5526 ft 269 kts 188°
2026-05-04 02:24 58.08034 -135.27264 5517 ft 270 kts 184°
2026-05-04 02:24 58.06171 -135.26631 5512 ft 275 kts 159°
2026-05-04 02:25 58.04625 -135.24481 5507 ft 282 kts 131°
2026-05-04 02:25 58.03641 -135.21280 5501 ft 289 kts 109°
2026-05-04 02:25 58.03412 -135.17586 5502 ft 283 kts 81°
2026-05-04 02:25 58.04075 -135.14111 5506 ft 279 kts 55°
2026-05-04 02:26 58.05356 -135.11429 5501 ft 273 kts 32°
2026-05-04 02:26 58.07049 -135.10016 5508 ft 266 kts
2026-05-04 02:26 58.08866 -135.09978 5507 ft 262 kts 346°
2026-05-04 02:26 58.10520 -135.11171 5513 ft 255 kts 324°
2026-05-04 02:27 58.11839 -135.13406 5507 ft 254 kts 314°
2026-05-04 02:27 58.13307 -135.15230 5510 ft 257 kts 340°
2026-05-04 02:27 58.15107 -135.15419 5519 ft 267 kts
2026-05-04 02:27 58.16863 -135.14264 5519 ft 273 kts 28°
2026-05-04 02:28 58.18389 -135.12065 5529 ft 275 kts 38°
2026-05-04 02:28 58.19846 -135.09706 5520 ft 277 kts 38°
2026-05-04 02:28 58.21299 -135.07365 5524 ft 276 kts 37°
2026-05-04 02:28 58.22828 -135.05183 5504 ft 273 kts 26°
2026-05-04 02:29 58.24566 -135.03816 5530 ft 270 kts 15°
2026-05-04 02:29 58.26360 -135.02731 5528 ft 274 kts 14°
2026-05-04 02:29 58.28169 -135.01645 5526 ft 272 kts 15°
2026-05-04 02:29 58.29966 -135.00511 5522 ft 269 kts 15°
2026-05-04 02:30 58.31695 -134.99419 5520 ft 253 kts 15°
2026-05-04 02:30 58.33331 -134.98395 5462 ft 247 kts 15°
2026-05-04 02:30 58.34925 -134.97392 5162 ft 237 kts 16°
2026-05-04 02:30 58.36462 -134.96419 4865 ft 226 kts 16°
2026-05-04 02:31 58.37910 -134.95404 4635 ft 218 kts 25°
2026-05-04 02:31 58.39046 -134.93617 4398 ft 211 kts 53°
2026-05-04 02:31 58.39646 -134.91153 4241 ft 198 kts 75°
2026-05-04 02:31 58.39756 -134.88660 4099 ft 189 kts 98°
2026-05-04 02:32 58.39462 -134.86275 3962 ft 183 kts 106°
2026-05-04 02:32 58.39129 -134.83899 3827 ft 184 kts 106°
2026-05-04 02:32 58.38806 -134.81566 3653 ft 184 kts 106°
2026-05-04 02:32 58.38483 -134.79227 3477 ft 179 kts 104°
2026-05-04 02:33 58.38177 -134.76997 3323 ft 169 kts 105°
2026-05-04 02:33 58.37886 -134.74890 3175 ft 164 kts 104°
2026-05-04 02:33 58.37595 -134.72774 3032 ft 166 kts 104°
2026-05-04 02:33 58.37291 -134.70572 2494 ft 181 kts 104°
2026-05-04 02:34 58.36962 -134.68198 1937 ft 190 kts 103°
2026-05-04 02:34 58.36626 -134.65764 1450 ft 192 kts 104°
2026-05-04 02:34 58.36295 -134.63301 1015 ft 191 kts 103°
2026-05-04 02:34 58.35965 -134.60939 484 ft 190 kts 107°
2026-05-04 02:35 58.35620 -134.58507 8 ft 182 kts 105°
2026-05-04 02:35 58.35347 -134.56554 -11 ft 117 kts 105°
2026-05-04 02:35 58.35198 -134.55524 -16 ft 46 kts 103°
2026-05-04 02:35 58.35219 -134.55258 -16 ft 13 kts 31°
2026-05-04 02:36 58.35279 -134.55275 -16 ft 8 kts 297°
2026-05-04 02:36 58.35303 -134.55429 -16 ft 18 kts 284°
2026-05-04 02:36 58.35344 -134.55728 -16 ft 24 kts 284°
2026-05-04 02:36 58.35386 -134.56030 -14 ft 22 kts 284°
2026-05-04 02:37 58.35424 -134.56302 -12 ft 20 kts 284°
2026-05-04 02:37 58.35459 -134.56555 -12 ft 20 kts 284°
2026-05-04 02:37 58.35496 -134.56830 -12 ft 22 kts 284°
2026-05-04 02:37 58.35538 -134.57135 -9 ft 23 kts 284°
2026-05-04 02:38 58.35579 -134.57422 -6 ft 21 kts 284°
2026-05-04 02:38 58.35615 -134.57681 -5 ft 19 kts 285°
2026-05-04 02:38 58.35650 -134.57921 -4 ft 17 kts 285°
2026-05-04 02:38 58.35680 -134.58134 -4 ft 15 kts 284°
2026-05-04 02:39 58.35725 -134.58292 -5 ft 13 kts 339°
2026-05-04 02:39 58.35789 -134.58301 -4 ft 5 kts
2026-05-04 02:39 58.35819 -134.58299 -4 ft 3 kts 360°
2026-05-04 02:39 58.35827 -134.58299 -4 ft 1 kts 359°